Total_Precipitation_Accumulation
1.11 1.14 1.17 1.12 1.09 1.06 1.02 0.97 1.02 1.10 1.10 1.10 1.24 1.30 1.37 1.47 1.67 1.93 2.11 2.12 2.04 2.05 2.03 2.10 2.28 2.38 2.61 2.58 2.49 2.39 2.27 2.16 2.06 1.84 1.59 1.40 1.46 1.52 1.62 1.70 1.66 1.52 1.33
1.21 1.25 1.20 1.12 1.06 1.04 0.99 0.90 0.88 0.84 0.84 0.96 1.10 1.13 1.17 1.22 1.43 1.72 1.92 1.98 1.96 1.86 1.81 1.91 2.12 2.29 2.51 2.64 2.60 2.45 2.37 2.25 2.17 2.13 1.93 1.67 1.55 1.61 1.75 1.82 1.73 1.63 1.54
1.28 1.17 1.11 1.05 0.96 0.92 0.82 0.75 0.80 0.79 0.85 0.97 1.05 1.10 1.14 1.19 1.23 1.36 1.55 1.70 1.69 1.63 1.63 1.67 1.70 1.88 2.16 2.36 2.38 2.41 2.47 2.45 2.45 2.31 2.10 1.96 1.80 1.68 1.81 1.85 1.80 1.80 1.66
1.42 1.32 1.20 1.09 0.99 0.95 0.84 0.75 0.72 0.75 0.83 0.91 0.96 1.04 1.12 1.16 1.18 1.20 1.24 1.31 1.35 1.43 1.49 1.50 1.53 1.58 1.78 1.96 2.06 2.25 2.51 2.56 2.62 2.54 2.28 2.11 1.99 1.85 1.92 2.02 2.07 2.01 1.87
1.42 1.40 1.27 1.10 0.97 0.91 0.86 0.78 0.76 0.75 0.76 0.83 0.88 0.88 0.94 1.04 1.14 1.18 1.07 1.05 1.15 1.26 1.28 1.22 1.24 1.36 1.51 1.63 1.66 2.01 2.38 2.59 2.60 2.56 2.40 2.28 2.02 1.92 1.79 1.79 1.95 2.17 2.15
1.24 1.24 1.04 0.87 0.74 0.68 0.70 0.73 0.73 0.71 0.76 0.79 0.77 0.78 0.85 0.87 1.06 1.06 0.91 0.91 0.98 1.09 1.19 1.16 1.05 1.05 1.12 1.25 1.32 1.46 1.72 1.98 2.30 2.51 2.44 2.23 1.97 1.88 1.86 1.85 1.86 1.98 2.14
0.86 0.85 0.76 0.66 0.62 0.67 0.70 0.65 0.67 0.69 0.70 0.71 0.70 0.69 0.72 0.84 0.89 0.76 0.78 0.81 0.89 0.98 1.06 1.14 1.05 0.93 1.04 1.12 1.24 1.31 1.28 1.32 1.62 2.02 2.17 2.09 2.15 2.06 2.02 1.91 1.86 1.91 1.95
0.58 0.60 0.56 0.54 0.56 0.60 0.62 0.61 0.67 0.73 0.70 0.70 0.73 0.71 0.70 0.78 0.79 0.66 0.73 0.75 0.78 0.86 1.00 1.11 1.15 1.08 1.10 1.22 1.22 1.24 1.16 1.11 1.32 1.34 1.53 1.87 2.08 2.18 2.12 2.17 2.30 2.23 2.06
0.29 0.29 0.32 0.33 0.36 0.38 0.39 0.46 0.58 0.65 0.68 0.71 0.76 0.77 0.70 0.69 0.76 0.68 0.71 0.74 0.76 0.81 0.85 0.95 1.04 1.01 1.20 1.31 1.27 1.40 1.39 1.25 1.39 1.46 1.51 1.59 1.77 1.98 2.05 2.06 2.09 2.14 2.09
0.18 0.18 0.21 0.23 0.23 0.24 0.28 0.33 0.39 0.40 0.47 0.58 0.59 0.61 0.65 0.65 0.86 0.79 0.79 0.75 0.79 0.89 0.92 0.91 1.08 1.11 1.26 1.24 1.15 1.36 1.40 1.32 1.26 1.30 1.28 1.28 1.24 1.41 1.68 1.77 1.95 2.02 1.96
0.23 0.25 0.24 0.23 0.24 0.25 0.28 0.30 0.32 0.34 0.39 0.44 0.49 0.53 0.62 0.73 0.92 0.93 0.95 0.88 0.90 1.03 1.02 0.94 0.89 1.06 0.97 1.05 1.06 1.06 1.30 1.35 1.28 1.36 1.35 1.25 1.21 1.23 1.33 1.45 1.68 1.89 1.91
0.22 0.24 0.26 0.26 0.26 0.27 0.29 0.32 0.35 0.37 0.37 0.40 0.43 0.49 0.54 0.63 0.74 0.81 0.85 0.87 0.94 1.00 1.05 0.95 0.94 1.04 0.87 0.84 0.84 0.95 1.18 1.30 1.25 1.33 1.37 1.36 1.27 1.18 1.20 1.29 1.38 1.46 1.51
0.22 0.24 0.26 0.27 0.27 0.25 0.26 0.31 0.35 0.37 0.39 0.43 0.48 0.54 0.58 0.62 0.66 0.68 0.68 0.73 0.78 0.82 0.85 0.94 0.95 0.92 0.84 0.76 0.77 0.88 0.97 1.07 1.24 1.29 1.24 1.23 1.20 1.19 1.23 1.23 1.29 1.32 1.35
0.23 0.26 0.28 0.27 0.27 0.27 0.28 0.32 0.35 0.38 0.42 0.47 0.52 0.56 0.60 0.63 0.65 0.64 0.70 0.76 0.73 0.71 0.71 0.72 0.75 0.77 0.77 0.73 0.73 0.80 0.88 1.00 1.10 1.10 1.06 1.06 1.13 1.21 1.31 1.36 1.39 1.39 1.41
0.22 0.24 0.24 0.25 0.27 0.28 0.30 0.31 0.33 0.35 0.44 0.53 0.58 0.61 0.60 0.58 0.58 0.63 0.72 0.79 0.87 0.94 0.99 0.87 0.84 0.84 0.81 0.75 0.72 0.74 0.81 0.91 0.94 0.91 0.91 0.90 0.93 1.07 1.19 1.27 1.38 1.39 1.37
0.27 0.25 0.24 0.23 0.26 0.29 0.29 0.30 0.32 0.34 0.40 0.44 0.47 0.50 0.51 0.54 0.58 0.59 0.64 0.73 0.84 0.99 1.12 1.07 1.09 1.09 1.04 0.95 0.85 0.77 0.74 0.78 0.84 0.92 0.94 0.92 0.91 0.97 1.08 1.16 1.25 1.30 1.30
0.26 0.27 0.26 0.25 0.26 0.29 0.30 0.29 0.32 0.32 0.31 0.34 0.38 0.42 0.50 0.60 0.65 0.69 0.72 0.77 0.80 0.94 1.09 1.11 1.13 1.13 1.06 1.01 0.98 0.89 0.80 0.78 0.82 0.88 0.92 0.95 0.98 1.01 1.09 1.15 1.19 1.23 1.25
0.26 0.27 0.28 0.31 0.32 0.32 0.36 0.38 0.40 0.42 0.41 0.35 0.34 0.37 0.41 0.50 0.56 0.62 0.73 0.84 0.82 0.88 0.96 1.00 1.01 0.92 0.86 0.84 0.83 0.82 0.76 0.75 0.77 0.78 0.82 0.89 0.95 1.00 1.07 1.14 1.18 1.18 1.19
0.24 0.27 0.29 0.35 0.40 0.40 0.42 0.48 0.48 0.41 0.37 0.37 0.36 0.36 0.39 0.42 0.46 0.50 0.61 0.76 0.78 0.75 0.72 0.70 0.69 0.69 0.67 0.71 0.72 0.71 0.70 0.68 0.69 0.70 0.72 0.80 0.89 0.95 1.01 1.06 1.14 1.21 1.20
0.21 0.27 0.30 0.33 0.36 0.38 0.40 0.44 0.45 0.43 0.41 0.43 0.44 0.47 0.48 0.48 0.50 0.54 0.57 0.63 0.63 0.59 0.58 0.59 0.59 0.62 0.67 0.70 0.72 0.74 0.73 0.71 0.71 0.73 0.76 0.83 0.88 0.94 1.00 1.06 1.13 1.19 1.17
0.23 0.26 0.30 0.31 0.33 0.34 0.37 0.42 0.44 0.45 0.46 0.47 0.47 0.51 0.57 0.58 0.58 0.60 0.66 0.67 0.66 0.65 0.64 0.64 0.62 0.59 0.65 0.71 0.74 0.76 0.77 0.77 0.78 0.80 0.82 0.88 0.94 0.98 1.01 1.09 1.17 1.20 1.22
0.25 0.27 0.29 0.33 0.35 0.34 0.38 0.43 0.47 0.46 0.45 0.46 0.47 0.50 0.58 0.59 0.58 0.57 0.59 0.62 0.64 0.66 0.68 0.71 0.70 0.65 0.66 0.74 0.79 0.82 0.85 0.86 0.85 0.85 0.87 0.90 0.96 0.98 1.00 1.10 1.20 1.22 1.25
0.30 0.32 0.33 0.35 0.35 0.36 0.38 0.42 0.46 0.45 0.44 0.45 0.47 0.49 0.53 0.57 0.57 0.56 0.57 0.57 0.59 0.62 0.65 0.70 0.74 0.71 0.67 0.70 0.79 0.88 0.93 0.93 0.92 0.94 1.01 1.04 1.03 1.02 1.05 1.09 1.15 1.22 1.22
0.31 0.36 0.40 0.42 0.42 0.41 0.42 0.46 0.48 0.46 0.48 0.50 0.50 0.50 0.52 0.57 0.56 0.54 0.56 0.58 0.61 0.64 0.67 0.71 0.74 0.73 0.70 0.72 0.77 0.85 0.91 0.93 0.92 0.96 1.02 1.11 1.13 1.11 1.13 1.19 1.24 1.27 1.33
0.34 0.36 0.39 0.41 0.42 0.43 0.45 0.47 0.49 0.47 0.49 0.52 0.53 0.53 0.55 0.58 0.59 0.60 0.60 0.60 0.64 0.68 0.67 0.70 0.76 0.77 0.77 0.75 0.77 0.84 1.00 1.06 1.03 1.03 1.04 1.10 1.14 1.16 1.22 1.31 1.41 1.44 1.49
0.33 0.35 0.38 0.42 0.44 0.45 0.47 0.48 0.51 0.52 0.53 0.54 0.55 0.58 0.60 0.63 0.64 0.63 0.64 0.65 0.66 0.67 0.68 0.71 0.74 0.77 0.80 0.84 0.86 0.93 1.02 0.98 0.96 1.03 1.07 1.13 1.19 1.19 1.20 1.27 1.30 1.37 1.43